Time_in_sec,gx,gy,gz
1326903321.17346668,0.00159220,0.02141750,-0.99976935
1326903321.22451091,0.00157552,0.02129659,-0.99977196
1326903321.27280164,0.00135910,0.02117578,-0.99977484
1326903321.32561851,0.00139069,0.02096779,-0.99977918
1326903321.37265754,0.00145688,0.02131951,-0.99977165
1326903321.42488575,0.00143777,0.02151128,-0.99976757
1326903321.47452927,0.00124994,0.02174074,-0.99976286
1326903321.52553821,0.00108560,0.02199344,-0.99975753
1326903321.57352829,0.00112315,0.02158012,-0.99976649
1326903321.62475777,0.00098682,0.02178167,-0.99976226
1326903321.67364097,0.00088012,0.02181610,-0.99976161
1326903321.72473001,0.00075283,0.02215614,-0.99975424
1326903321.77252746,0.00064193,0.02223380,-0.99975259
1326903321.82572722,0.00075290,0.02199094,-0.99975789
1326903321.87362194,0.00072581,0.02224222,-0.99975235
1326903321.92461348,0.00069152,0.02229024,-0.99975130
1326903321.97255778,0.00033389,0.02232202,-0.99975078
1326903322.02461648,0.00024113,0.02234167,-0.99975036
1326903322.07262707,0.00057112,0.02188053,-0.99976043
1326903322.12571597,0.00026186,0.02211065,-0.99975550
1326903322.17364883,0.00024960,0.02217434,-0.99975409
1326903322.22557139,0.00025328,0.02240493,-0.99974895
1326903322.27355552,-0.00004071,0.02230561,-0.99975120
1326903322.32154036,0.00050387,0.02173710,-0.99976359
1326903322.37351251,0.00051976,0.02154565,-0.99976773
1326903322.42449951,0.00026037,0.02167598,-0.99976501
1326903322.47258615,0.00023797,0.02177635,-0.99976284
1326903322.52150273,0.00006944,0.02192883,-0.99975953
1326903322.57359624,0.00059779,0.02163135,-0.99976584
1326903322.62457681,0.00041824,0.02174003,-0.99976357
1326903322.67354107,0.00038870,0.02180059,-0.99976226
1326903322.72556090,0.00040157,0.02194947,-0.99975900
1326903322.77256298,0.00053042,0.02196603,-0.99975858
1326903322.82134557,0.00104902,0.02170623,-0.99976384
1326903322.87257361,0.00088868,0.02187201,-0.99976038
1326903322.92150259,0.00098706,0.02179850,-0.99976190
1326903322.97256494,0.00076015,0.02198227,-0.99975807
1326903323.02560544,0.00067812,0.02216276,-0.99975415
1326903323.07360077,0.00105249,0.02169464,-0.99976409
1326903323.12555075,0.00084926,0.02180185,-0.99976195
1326903323.17472982,0.00089030,0.02159107,-0.99976649
1326903323.22151685,0.00091861,0.02185471,-0.99976074
1326903323.27262878,0.00074595,0.02170120,-0.99976422
1326903323.32148457,0.00092204,0.02153484,-0.99976767
1326903323.37352109,0.00090151,0.02188999,-0.99975998
1326903323.42518950,0.00085012,0.02212321,-0.99975489
1326903323.47354650,0.00071317,0.02206061,-0.99975638
1326903323.52231455,0.00056384,0.02217941,-0.99975385
1326903323.57251549,0.00070288,0.02188267,-0.99976030
1326903323.62151074,0.00081903,0.02192433,-0.99975930
1326903323.67259073,0.00095980,0.02187053,-0.99976035
1326903323.72150588,0.00080731,0.02177679,-0.99976253
1326903323.77251458,0.00075321,0.02174645,-0.99976323
1326903323.82458353,0.00113413,0.02130079,-0.99977247
1326903323.87351608,0.00130898,0.02147462,-0.99976854
1326903323.92094231,0.00139728,0.02144076,-0.99976914
1326903323.97650623,0.00126745,0.02159443,-0.99976601
1326903324.02153635,0.00141756,0.02167204,-0.99976413
1326903324.07365537,0.00178339,0.02102528,-0.99977735
1326903324.12151074,0.00190119,0.02081605,-0.99978151
1326903324.17364979,0.00186539,0.02071545,-0.99978367
1326903324.22563839,0.00181762,0.02079327,-0.99978214
1326903324.27350211,0.00168429,0.02073752,-0.99978354
1326903324.32470298,0.00191980,0.02051241,-0.99978776
1326903324.37349725,0.00175005,0.02042904,-0.99978977
1326903324.42556787,0.00165659,0.02057962,-0.99978684
1326903324.47363782,0.00152938,0.02061174,-0.99978639
1326903324.52821398,0.00131276,0.02065968,-0.99978570
1326903324.57249498,0.00146233,0.02059086,-0.99978692
1326903324.62463117,0.00128199,0.02082950,-0.99978222
1326903324.67270732,0.00120912,0.02085317,-0.99978182
1326903324.72465038,0.00119917,0.02082265,-0.99978247
1326903324.77353883,0.00118254,0.02080785,-0.99978279
1326903324.82478595,0.00164149,0.02034392,-0.99979169
1326903324.87353039,0.00140895,0.02034088,-0.99979211
1326903324.92316294,0.00126434,0.02043325,-0.99979042
1326903324.97281051,0.00122564,0.02059641,-0.99978712
1326903325.02465796,0.00115461,0.02066011,-0.99978589
1326903325.07350349,0.00176938,0.02061217,-0.99978598
1326903325.12466121,0.00164182,0.02064989,-0.99978542
1326903325.17354250,0.00145110,0.02081720,-0.99978225
1326903325.22545385,0.00150066,0.02086392,-0.99978120
1326903325.27363086,0.00140699,0.02107690,-0.99977687
1326903325.32163739,0.00136317,0.02092561,-0.99978011
1326903325.37262249,0.00114625,0.02097197,-0.99977941
1326903325.42550349,0.00112397,0.02115763,-0.99977552
1326903325.47352648,0.00103204,0.02131920,-0.99977219
1326903325.52461171,0.00092299,0.02150844,-0.99976824
1326903325.57354474,0.00130095,0.02104554,-0.99977767
1326903325.62151670,0.00096840,0.02108699,-0.99977718
1326903325.67254734,0.00094680,0.02108098,-0.99977732
1326903325.72148585,0.00092521,0.02114308,-0.99977603
1326903325.77336407,0.00068024,0.02096828,-0.99977991
1326903325.82463050,0.00095012,0.02057089,-0.99978795
1326903325.87397623,0.00066528,0.02049291,-0.99978978
1326903325.92305040,0.00074932,0.02065908,-0.99978630
1326903325.97364092,0.00070726,0.02078420,-0.99978374
1326903326.02123260,0.00058493,0.02083121,-0.99978284
1326903326.07262015,0.00056646,0.02069481,-0.99978568
1326903326.12149906,0.00054068,0.02091224,-0.99978117
1326903326.17254043,0.00020545,0.02085068,-0.99978258
1326903326.22455001,-0.00004852,0.02088472,-0.99978189
1326903326.27357793,-0.00022050,0.02094837,-0.99978053
1326903326.32455444,-0.00010805,0.02049194,-0.99979001
1326903326.37448883,-0.00026330,0.02046249,-0.99979059
1326903326.42153931,-0.00030085,0.02055784,-0.99978862
1326903326.47256684,-0.00044607,0.02065977,-0.99978646
1326903326.52151084,-0.00045900,0.02095307,-0.99978036
1326903326.57261539,-0.00031819,0.02061219,-0.99978750
1326903326.62749887,-0.00038657,0.02063920,-0.99978691
1326903326.67350197,-0.00066965,0.02094924,-0.99978032
1326903326.72153401,-0.00078158,0.02087687,-0.99978175
1326903326.77350402,-0.00089616,0.02094749,-0.99978018
1326903326.82155228,-0.00044075,0.02074999,-0.99978460
1326903326.87266088,-0.00050830,0.02066026,-0.99978642
1326903326.92148519,-0.00060600,0.02095631,-0.99978021
1326903326.97255301,-0.00059460,0.02102233,-0.99977883
1326903327.02466989,-0.00053258,0.02115659,-0.99977603
1326903327.07351899,0.00011254,0.02068795,-0.99978598
1326903327.12453794,0.00006673,0.02084710,-0.99978267
1326903327.17256141,-0.00004442,0.02096118,-0.99978029
1326903327.22453761,0.00001340,0.02102718,-0.99977890
1326903327.27265215,-0.00023311,0.02125416,-0.99977408
1326903327.32551384,0.00022101,0.02086110,-0.99978236
1326903327.37249994,0.00005812,0.02083939,-0.99978283
1326903327.42461824,0.00017522,0.02092388,-0.99978106
1326903327.47356129,-0.00008556,0.02116346,-0.99977603
1326903327.52463198,-0.00012380,0.02114209,-0.99977647
1326903327.57620049,0.00034263,0.02083017,-0.99978297
1326903327.62450790,0.00026170,0.02091226,-0.99978128
1326903327.67265797,0.00014585,0.02085460,-0.99978251
1326903327.72548509,0.00019596,0.02110868,-0.99977717
1326903327.77253056,0.00006601,0.02122865,-0.99977464
1326903327.82531667,0.00063700,0.02103371,-0.99977856
1326903327.87353468,0.00059180,0.02103775,-0.99977851
1326903327.92466831,0.00075349,0.02121367,-0.99977468
1326903327.97355175,0.00080301,0.02125494,-0.99977377
1326903328.02453208,0.00062923,0.02143538,-0.99977004
1326903328.07266021,0.00069385,0.02132265,-0.99977241
1326903328.12674475,0.00090218,0.02144801,-0.99976956
1326903328.17262530,0.00076633,0.02163257,-0.99976569
1326903328.22455215,0.00075945,0.02171585,-0.99976389
1326903328.27253890,0.00075429,0.02195191,-0.99975874
1326903328.32463503,0.00114199,0.02162660,-0.99976547
1326903328.37258053,0.00098883,0.02165550,-0.99976500
1326903328.42555499,0.00100350,0.02174789,-0.99976298
1326903328.47355580,0.00096350,0.02177645,-0.99976240
1326903328.52149940,0.00086905,0.02177613,-0.99976249
1326903328.57342196,0.00159944,0.02114179,-0.99977521
1326903328.62563086,0.00149061,0.02139573,-0.99976997
1326903328.67473364,0.00155324,0.02162492,-0.99976495
1326903328.72453237,0.00169505,0.02178760,-0.99976119
1326903328.77353454,0.00160796,0.02170542,-0.99976312
1326903328.82139134,0.00238867,0.02129201,-0.99977045
1326903328.87258291,0.00215737,0.02144248,-0.99976776
1326903328.92151213,0.00228861,0.02151798,-0.99976584
1326903328.97251844,0.00221701,0.02148843,-0.99976664
1326903329.02140760,0.00224259,0.02148934,-0.99976656
1326903329.07351494,0.00269936,0.02135053,-0.99976841
1326903329.12456250,0.00253247,0.02163274,-0.99976278
1326903329.17253447,0.00236418,0.02168966,-0.99976196
1326903329.22594929,0.00223310,0.02173568,-0.99976126
1326903329.27255702,0.00197212,0.02199833,-0.99975606
1326903329.32156491,0.00228291,0.02164479,-0.99976312
1326903329.37364960,0.00214151,0.02195870,-0.99975659
1326903329.42464805,0.00190259,0.02198544,-0.99975648
1326903329.47364426,0.00152839,0.02209326,-0.99975475
1326903329.52154255,0.00156984,0.02233613,-0.99974929
1326903329.57352948,0.00213079,0.02184815,-0.99975903
1326903329.62229991,0.00200863,0.02201951,-0.99975552
1326903329.67313385,0.00182594,0.02225842,-0.99975058
1326903329.72150469,0.00172838,0.02252431,-0.99974480
1326903329.77269197,0.00151206,0.02265961,-0.99974209
1326903329.82555223,0.00172822,0.02239061,-0.99974781
1326903329.87299085,0.00158536,0.02233772,-0.99974922
1326903329.92552757,0.00130498,0.02226288,-0.99975130
1326903329.97352052,0.00099022,0.02252424,-0.99974581
1326903330.02095485,0.00089001,0.02262944,-0.99974353
1326903330.07364655,0.00079861,0.02255421,-0.99974530
1326903330.12548447,0.00087049,0.02247673,-0.99974699
1326903330.17262936,0.00072774,0.02259793,-0.99974437
1326903330.22462416,0.00057231,0.02267358,-0.99974276
1326903330.27594662,0.00051616,0.02282861,-0.99973926
1326903330.32562590,0.00026962,0.02276521,-0.99974080
1326903330.37354279,0.00037662,0.02304542,-0.99973435
1326903330.42450714,0.00051551,0.02309441,-0.99973316
1326903330.47265100,0.00049864,0.02324409,-0.99972970
1326903330.52935529,0.00015431,0.02344322,-0.99972516
1326903330.57270694,0.00027551,0.02289627,-0.99973781
1326903330.62571931,0.00004451,0.02303851,-0.99973458
1326903330.67717505,-0.00000492,0.02307639,-0.99973370
1326903330.72168088,-0.00014890,0.02328477,-0.99972886
1326903330.77355075,-0.00036076,0.02343622,-0.99972527
1326903330.82505083,-0.00001333,0.02325281,-0.99972962
1326903330.87363768,-0.00047658,0.02349625,-0.99972381
1326903330.92551184,-0.00051314,0.02364645,-0.99972025
1326903330.97263360,-0.00082878,0.02385838,-0.99971500
1326903331.02452707,-0.00083009,0.02390816,-0.99971381
1326903331.07551050,-0.00036028,0.02372358,-0.99971849
1326903331.12462473,-0.00033430,0.02370429,-0.99971896
1326903331.17352629,-0.00026530,0.02369364,-0.99971923
1326903331.22481084,-0.00046256,0.02400389,-0.99971176
1326903331.27254820,-0.00062190,0.02398550,-0.99971211
1326903331.32181478,-0.00018119,0.02386809,-0.99971510
1326903331.37249517,-0.00040145,0.02391088,-0.99971401
1326903331.42461920,-0.00055943,0.02412357,-0.99970883
1326903331.47360373,-0.00061729,0.02410989,-0.99970912
1326903331.52170277,-0.00060661,0.02411452,-0.99970902
1326903331.57350087,-0.00003407,0.02393368,-0.99971355
1326903331.62151766,-0.00007643,0.02401649,-0.99971156
1326903331.67249656,-0.00017924,0.02424817,-0.99970595
1326903331.72148609,-0.00024807,0.02431825,-0.99970424
1326903331.77250028,-0.00011505,0.02438464,-0.99970264
1326903331.82453227,0.00032823,0.02401041,-0.99971165
1326903331.87351370,0.00017523,0.02409081,-0.99970976
1326903331.92458153,0.00013285,0.02382687,-0.99971609
1326903331.97352600,0.00002882,0.02396204,-0.99971287
1326903332.02155399,-0.00015770,0.02397148,-0.99971263
1326903332.07256246,0.00000879,0.02350196,-0.99972379
1326903332.12124515,-0.00009209,0.02342868,-0.99972551
1326903332.17365432,-0.00008718,0.02336728,-0.99972694
1326903332.22450638,-0.00030501,0.02339191,-0.99972633
1326903332.27180052,-0.00033833,0.02317019,-0.99973148
1326903332.32462072,-0.00006530,0.02275668,-0.99974103
1326903332.37353945,0.00003182,0.02271700,-0.99974194
1326903332.42111492,-0.00015163,0.02285957,-0.99973867
1326903332.47351694,-0.00003492,0.02298975,-0.99973570
1326903332.52151251,0.00004370,0.02290176,-0.99973772
1326903332.57264352,0.00086793,0.02239996,-0.99974871
1326903332.62507415,0.00076165,0.02259504,-0.99974441
1326903332.67352772,0.00049780,0.02311013,-0.99973280
1326903332.72501159,0.00032291,0.02332854,-0.99972780
1326903332.77369618,0.00009066,0.02332843,-0.99972785
1326903332.82497668,0.00067715,0.02288318,-0.99973792
1326903332.87252545,0.00062563,0.02296964,-0.99973597
1326903332.92148376,0.00042300,0.02330101,-0.99972841
1326903332.97264862,0.00041785,0.02360109,-0.99972137
1326903333.02092814,0.00031281,0.02377241,-0.99971735
1326903333.07352638,0.00061678,0.02348370,-0.99972403
1326903333.12452507,0.00058490,0.02353193,-0.99972291
1326903333.17415285,0.00034604,0.02369532,-0.99971917
1326903333.22451520,0.00056064,0.02384012,-0.99971563
1326903333.27264476,0.00069782,0.02380315,-0.99971642
1326903333.32550597,0.00117025,0.02366066,-0.99971936
1326903333.37285924,0.00128912,0.02371438,-0.99971794
1326903333.42552781,0.00117217,0.02361804,-0.99972037
1326903333.47350025,0.00116252,0.02373029,-0.99971772
1326903333.52563477,0.00142759,0.02379770,-0.99971578
1326903333.57254052,0.00122363,0.02377832,-0.99971651
1326903333.62472630,0.00122133,0.02384473,-0.99971493
1326903333.67365313,0.00099701,0.02407382,-0.99970969
1326903333.72548628,0.00095992,0.02407688,-0.99970965
1326903333.77258968,0.00109746,0.02409531,-0.99970906
1326903333.82163095,0.00149110,0.02349125,-0.99972293
1326903333.87349963,0.00143593,0.02357144,-0.99972112
1326903333.92183185,0.00148701,0.02365986,-0.99971896
1326903333.97352600,0.00136937,0.02365930,-0.99971914
1326903334.02156210,0.00113343,0.02369787,-0.99971852
1326903334.07363820,0.00250683,0.02340335,-0.99972296
1326903334.12834573,0.00233729,0.02321010,-0.99972788
1326903334.17262840,0.00228717,0.02339460,-0.99972369
1326903334.22238183,0.00214931,0.02343578,-0.99972303
1326903334.27353954,0.00205562,0.02363705,-0.99971849
1326903334.32153583,0.00221987,0.02341217,-0.99972343
1326903334.37292385,0.00194784,0.02354347,-0.99972092
1326903334.42456579,0.00167821,0.02377634,-0.99971589
1326903334.47251606,0.00131545,0.02377681,-0.99971643
1326903334.52163005,0.00130503,0.02373240,-0.99971750
1326903334.57261777,0.00118415,0.02358062,-0.99972124
1326903334.62450171,0.00098365,0.02376530,-0.99971708
1326903334.67364478,0.00102179,0.02379936,-0.99971623
1326903334.72454715,0.00087447,0.02381360,-0.99971603
1326903334.77386379,0.00123282,0.02382814,-0.99971531
1326903334.82129169,0.00114145,0.02368501,-0.99971882
1326903334.87335610,0.00096234,0.02389177,-0.99971409
1326903334.92151165,0.00099309,0.02424247,-0.99970561
1326903334.97263432,0.00067377,0.02425302,-0.99970563
1326903335.02146411,0.00064251,0.02423636,-0.99970605
1326903335.07604122,0.00111936,0.02405473,-0.99971002
1326903335.12128258,0.00088355,0.02419237,-0.99970693
1326903335.17355800,0.00079249,0.02419339,-0.99970698
1326903335.22117043,0.00059431,0.02443985,-0.99970113
1326903335.27317929,0.00050467,0.02448106,-0.99970017
1326903335.32148433,-0.00012239,0.02409180,-0.99970974
1326903335.37254190,0.00007295,0.02419668,-0.99970721
1326903335.42126918,0.00028333,0.02430509,-0.99970455
1326903335.47361135,0.00013039,0.02458028,-0.99969785
1326903335.52564836,0.00025043,0.02446527,-0.99970065
1326903335.57364416,0.00058730,0.02417443,-0.99970758
1326903335.62104154,0.00062650,0.02420885,-0.99970673
1326903335.67365289,0.00058407,0.02432305,-0.99970398
1326903335.72159863,0.00049355,0.02417831,-0.99970754
1326903335.77264237,0.00072301,0.02445436,-0.99970069
1326903335.82451534,0.00047613,0.02412718,-0.99970878
1326903335.87561274,0.00057057,0.02415508,-0.99970806
1326903335.92091727,0.00042543,0.02431125,-0.99970435
1326903335.97353411,0.00037384,0.02442315,-0.99970164
1326903336.02454972,0.00027065,0.02456312,-0.99969824
1326903336.07263732,0.00104465,0.02421220,-0.99970630
1326903336.12548351,0.00115517,0.02422379,-0.99970589
1326903336.17350626,0.00131420,0.02453028,-0.99969822
1326903336.22549748,0.00119003,0.02469406,-0.99969435
1326903336.27617550,0.00117360,0.02489582,-0.99968936
1326903336.32449579,0.00146058,0.02437163,-0.99970190
1326903336.37352562,0.00130924,0.02444933,-0.99970021
1326903336.42449045,0.00112165,0.02455762,-0.99969779
1326903336.47250986,0.00114548,0.02446840,-0.99969995
1326903336.52578211,0.00103570,0.02439134,-0.99970195
1326903336.57420278,0.00114919,0.02383724,-0.99971519
1326903336.62449026,0.00096329,0.02383653,-0.99971541
1326903336.67350888,0.00117448,0.02396298,-0.99971216
1326903336.72514129,0.00104998,0.02406286,-0.99970990
1326903336.77349806,0.00094048,0.02445564,-0.99970047
1326903336.82457089,0.00180100,0.02420230,-0.99970546
1326903336.87351251,0.00156043,0.02445380,-0.99969974
1326903336.92551494,0.00133226,0.02460547,-0.99969635
1326903336.97263932,0.00135263,0.02463896,-0.99969550
1326903337.02459288,0.00106312,0.02461398,-0.99969646
1326903337.07366061,0.00184589,0.02394063,-0.99971168
1326903337.12151575,0.00184270,0.02419443,-0.99970557
1326903337.17352891,0.00185908,0.02428056,-0.99970346
1326903337.22148204,0.00190783,0.02437254,-0.99970113
1326903337.27251267,0.00183358,0.02460600,-0.99969554
1326903337.32150793,0.00180471,0.02336447,-0.99972538
1326903337.37258220,0.00182357,0.02345893,-0.99972314
1326903337.42558765,0.00155844,0.02347750,-0.99972315
1326903337.47352409,0.00143030,0.02366409,-0.99971894
1326903337.52137804,0.00142889,0.02370779,-0.99971791
1326903337.57353950,0.00081593,0.02308405,-0.99973319
1326903337.62455297,0.00079225,0.02326767,-0.99972896
1326903337.67256856,0.00082713,0.02331713,-0.99972778
1326903337.72148323,0.00086422,0.02349023,-0.99972369
1326903337.77255964,0.00079595,0.02392213,-0.99971351
1326903337.82535577,-0.00012349,0.02323776,-0.99972996
1326903337.87297559,-0.00041842,0.02337918,-0.99972658
1326903337.92456102,-0.00040712,0.02341403,-0.99972577
1326903337.97352862,-0.00033019,0.02363419,-0.99972062
1326903338.02152848,-0.00074220,0.02367855,-0.99971935
1326903338.07251287,-0.00076689,0.02300519,-0.99973505
1326903338.12156439,-0.00076133,0.02281726,-0.99973936
1326903338.17319131,-0.00073688,0.02302809,-0.99973455
1326903338.22554827,-0.00068374,0.02309745,-0.99973298
1326903338.27352238,-0.00081629,0.02347290,-0.99972414
1326903338.32166004,-0.00074241,0.02276988,-0.99974046
1326903338.37354279,-0.00088131,0.02293003,-0.99973668
1326903338.42154884,-0.00084017,0.02309518,-0.99973292
1326903338.47264028,-0.00081689,0.02316356,-0.99973135
1326903338.52150941,-0.00068869,0.02322290,-0.99973007
1326903338.57253957,-0.00092556,0.02236520,-0.99974944
1326903338.62453461,-0.00089950,0.02251766,-0.99974604
1326903338.67352891,-0.00093789,0.02249946,-0.99974642
1326903338.72563004,-0.00112615,0.02262365,-0.99974342
1326903338.77355671,-0.00099508,0.02275148,-0.99974066
1326903338.82473588,-0.00093342,0.02245691,-0.99974738
1326903338.87303877,-0.00097034,0.02265926,-0.99974278
1326903338.92838216,-0.00089560,0.02267199,-0.99974256
1326903338.97365975,-0.00082510,0.02275252,-0.99974079
1326903339.02557373,-0.00069469,0.02277578,-0.99974036
